Location: Mahannah Oil Field
(37.4664°N, 96.6003°W)
Time: 10:49:40
(UTC+00:00)

Vanguard 2 - Pass Details

Date: 26 January 2021
Orbit: 552 x 2938 km, 32.9° (Epoch: 25 February)

Event Time Altitude Azimuth Distance (km) Brightness Sun altitude
Rises 03:15:25 0° 267° (W) 3,132 11.5 -42.0°
Reaches altitude 10° 03:17:50 10° 253° (WSW) 2,414 10.6 -42.5°
Enters shadow 03:18:54 15° 244° (WSW) 2,172 10.2 -42.7°
